Location: Bouchavesnes-Bergen
(49.9859°N, 2.9203°E)
Time: 02:29:51
(UTC+00:00)

IDEFIX/ARIANE 42P - Pass Details

Date: 04 October 2022
Orbit: 784 x 803 km, 98.5° (Epoch: 06 December)

Event Time Altitude Azimuth Distance (km) Brightness Sun altitude
Rises 02:29:00 0° 12° (NNE) 3,329 6.4 -31.8°
Reaches altitude 10° 02:31:21 10° 10° (N) 2,394 5.5 -31.5°
Enters shadow 02:34:45 40° 355° (N) 1,184 3.6 -31.0°
